Le nostre stazioni meteo in Italia

Pubblicità
Il mio iltempo24.it
Bournemouth Airport, Gran Bretagna (3862): Temperatura & dewpoint: 22.06.2017 23:00:00 - 28.06.2017 23:00:00 (BST)Bournemouth Airport, Gran Bretagna (3862): Temperatura -20cm & Temperatura -100cm: 22.06.2017 23:00:00 - 28.06.2017 23:00:00 (BST)Bournemouth Airport, Gran Bretagna (3862): velocità del vento & gusts: 22.06.2017 23:00:00 - 28.06.2017 23:00:00 (BST)Bournemouth Airport, Gran Bretagna (3862): direzione del vento: 22.06.2017 23:00:00 - 28.06.2017 23:00:00 (BST)Bournemouth Airport, Gran Bretagna (3862): reduced air pressure: 22.06.2017 23:00:00 - 28.06.2017 23:00:00 (BST)Bournemouth Airport, Gran Bretagna (3862): visibility: 22.06.2017 23:00:00 - 28.06.2017 23:00:00 (BST)Bournemouth Airport, Gran Bretagna (3862): ore di luce: 22.06.2017 23:00:00 - 28.06.2017 23:00:00 (BST)Bournemouth Airport, Gran Bretagna (3862): precipitazioni: 22.06.2017 23:00:00 - 28.06.2017 23:00:00 (BST)
Data & Tempo tt [°C] td [°C] tt -20cm [°C] tt -100cm [°C] ff [km/h] ff [kn] fx [km/h] fx [kn] dd ppp [hPa] vv [km] sd [min] rr [mm]
28.06.2017 23:00:00 13,4 12,6 - - 11 6 - - NE 996,5 7 0 0,0
28.06.2017 22:00:00 13,9 13,1 - - 15 8 - - NNE 996,5 10 0 0,0
28.06.2017 21:00:00 14,5 13,6 - - 9 5 - - NE 996,3 10 0 0,0
28.06.2017 20:00:00 14,8 14,0 - - 13 7 - - NE 996,3 10 0 0,0
28.06.2017 19:00:00 15,4 14,9 - - 11 6 - - ENE 996,4 5 0 4,2
28.06.2017 18:00:00 15,8 14,9 - - 13 7 - - NE 996,4 2,5 0 1,6
28.06.2017 17:00:00 15,9 15,3 - - 8 4 - - ENE 996,6 1,8 0 3,8
28.06.2017 16:00:00 15,9 15,1 - - 9 5 - - E 996,6 2,0 0 1,2
28.06.2017 15:00:00 17,2 15,6 - - 9 5 - - ESE 996,7 5 0 0,0
28.06.2017 14:00:00 16,6 15,7 - - 9 5 - - E 996,8 4,5 0 0,2
28.06.2017 13:00:00 16,1 15,4 - - 15 8 - - E 997,1 2,0 0 1,0
28.06.2017 12:00:00 16,0 15,5 - - 13 7 - - E 997,4 2,0 0 1,4
28.06.2017 11:00:00 16,1 15,7 - - 8 4 - - E 997,4 1,9 0 0,8
28.06.2017 10:00:00 15,9 15,5 19,9 16,7 11 6 - - NE 997,3 2,0 0 1,0
28.06.2017 09:00:00 15,8 15,4 - - 11 6 - - ENE 997,4 1,8 0 1,0
28.06.2017 08:00:00 15,8 15,5 - - 4 2 - - E 997,6 2,0 0 1,0
28.06.2017 07:00:00 15,7 15,4 - - 0 0 - - N 997,9 2,0 0 1,2
28.06.2017 06:00:00 15,5 15,2 - - 0 0 - - N 998,1 2,6 0 0,6
28.06.2017 05:00:00 15,4 15,1 - - 2 1 - - NNE 998,3 6 0 0,8
28.06.2017 04:00:00 15,4 15,1 - - 5 3 - - ONO 998,7 3,6 0 2,2
28.06.2017 03:00:00 15,3 15,0 - - 5 3 - - ONO 999,4 2,5 0 1,2
28.06.2017 02:00:00 15,3 14,9 - - 5 3 - - O 1000,4 2,5 0 0,4
28.06.2017 01:00:00 15,4 15,0 - - 5 3 - - O 1001,1 4,5 - 0,0
28.06.2017 00:00:00 15,4 15,0 - - 4 2 - - O 1001,7 4,5 0 0,4
27.06.2017 23:00:00 15,4 14,8 - - 8 4 - - O 1002,1 5 0 0,2
27.06.2017 22:00:00 15,7 15,0 - - 8 4 - - O 1002,4 5 0 0,0
27.06.2017 21:00:00 16,2 15,3 - - 2 1 - - OSO 1002,6 7 0 0,0
27.06.2017 20:00:00 16,4 15,3 - - 2 1 - - OSO 1002,8 6 0 0,4
27.06.2017 19:00:00 16,3 15,1 - - 4 2 - - OSO 1003,2 6 0 0,6
27.06.2017 18:00:00 16,9 15,5 - - 5 3 - - - 1003,8 6 0 0,8
27.06.2017 17:00:00 17,8 15,1 - - 5 3 - - - 1004,3 7 0 0,4
27.06.2017 16:00:00 17,7 15,5 - - 2 1 - - NO 1004,8 7 0 2,0
27.06.2017 15:00:00 17,8 15,0 - - 4 2 - - - 1005,0 8 0 0,0
27.06.2017 14:00:00 17,5 14,6 - - 5 3 - - - 1005,3 10 0 0,4
27.06.2017 13:00:00 18,5 13,2 - - 9 5 - - S 1005,7 10 0 0,0
27.06.2017 12:00:00 19,7 13,3 - - 11 6 - - S 1006,4 10 6 0,0
27.06.2017 11:00:00 19,9 12,4 - - 9 5 - - SSO 1006,6 10 18 0,0
27.06.2017 10:00:00 19,0 12,3 19,9 16,7 11 6 - - SE 1006,6 10 0 0,0
27.06.2017 09:00:00 18,6 12,3 - - 13 7 - - ESE 1007,2 10 18 0,0
27.06.2017 08:00:00 15,8 10,5 - - 9 5 - - ENE 1007,5 10 0 0,0
27.06.2017 07:00:00 14,8 9,7 - - 5 3 - - - 1008,0 10 0 0,0
27.06.2017 06:00:00 14,0 9,7 - - 5 3 - - ENE 1008,4 20 0 0,0
27.06.2017 05:00:00 14,0 9,9 - - 5 3 - - ENE 1008,9 20 0 0,0
27.06.2017 04:00:00 14,0 11,1 - - 8 4 - - NE 1009,4 18 0 0,0
27.06.2017 03:00:00 13,5 11,4 - - 8 4 - - ENE 1009,9 22 0 0,0
27.06.2017 02:00:00 12,3 10,7 - - 4 2 - - N 1010,7 24 0 0,0
27.06.2017 01:00:00 12,7 10,3 - - 4 2 - - NE 1011,0 21 - 0,0
27.06.2017 00:00:00 15,5 12,2 - - 5 3 - - SE 1011,5 15 0 0,0
26.06.2017 23:00:00 15,5 12,9 - - 4 2 - - ESE 1011,7 10 0 0,0
26.06.2017 22:00:00 17,1 12,2 - - 4 2 - - ESE 1011,6 10 0 0,0
26.06.2017 21:00:00 18,5 11,2 - - 5 3 - - - 1011,7 10 48 0,0
26.06.2017 20:00:00 19,0 11,4 - - 8 4 - - S 1012,0 10 18 0,0
26.06.2017 19:00:00 19,0 11,3 - - 9 5 - - S 1012,5 10 36 0,0
26.06.2017 18:00:00 18,5 12,3 - - 13 7 - - S 1012,6 10 30 0,0
26.06.2017 17:00:00 18,7 11,9 - - 13 7 - - S 1013,0 10 18 0,0
26.06.2017 16:00:00 19,4 12,4 - - 18 10 - - S 1013,3 10 48 0,0
26.06.2017 15:00:00 20,5 12,4 - - 18 10 - - S 1013,5 10 60 0,0
26.06.2017 14:00:00 21,0 11,1 - - 16 9 - - S 1013,7 10 48 0,0
26.06.2017 13:00:00 20,0 10,9 - - 18 10 - - SSE 1014,4 10 36 0,0
26.06.2017 12:00:00 19,1 11,2 - - 16 9 - - SSE 1014,7 10 18 0,0
26.06.2017 11:00:00 18,6 10,0 - - 16 9 - - SSE 1014,4 10 6 0,0
26.06.2017 10:00:00 18,9 11,4 19,9 16,7 15 8 - - E 1013,9 0,3 60 0,0
26.06.2017 09:00:00 17,8 11,0 - - 16 9 - - E 1014,3 10 24 0,0
26.06.2017 08:00:00 14,8 13,1 - - 8 4 - - ENE 1014,9 10 0 0,0
26.06.2017 07:00:00 12,5 12,0 - - 5 3 - - - 1014,8 10 6 0,0
26.06.2017 06:00:00 10,1 9,6 - - 2 1 - - NO 1014,9 13 0 0,0
26.06.2017 05:00:00 10,4 9,5 - - 2 1 - - S 1014,5 14 0 0,0
26.06.2017 04:00:00 10,5 9,3 - - 4 2 - - NE 1014,2 17 0 0,0
26.06.2017 03:00:00 11,4 10,6 - - 2 1 - - ONO 1014,5 24 0 0,0
26.06.2017 02:00:00 11,2 9,7 - - 5 3 - - NO 1014,8 23 0 0,0
26.06.2017 01:00:00 12,9 11,4 - - 2 1 - - N 1014,8 17 - 0,0
26.06.2017 00:00:00 13,3 10,7 - - 9 5 - - O 1015,0 10 0 0,0
25.06.2017 23:00:00 14,4 11,3 - - 5 3 - - O 1014,9 10 0 0,0
25.06.2017 22:00:00 15,8 11,4 - - 9 5 - - O 1014,7 10 0 0,0
25.06.2017 21:00:00 18,0 11,7 - - 15 8 - - ONO 1014,0 10 0 0,0
25.06.2017 20:00:00 18,8 12,2 - - 15 8 - - ONO 1013,9 10 18 0,0
25.06.2017 19:00:00 20,7 12,6 - - 24 13 - - ONO 1013,4 10 24 0,0
25.06.2017 18:00:00 20,0 13,9 - - 21 11 - - ONO 1013,0 10 6 0,0
25.06.2017 17:00:00 21,1 14,4 - - 26 14 - - OSO 1012,9 10 30 0,0
25.06.2017 16:00:00 21,4 14,2 - - 26 14 - - OSO 1012,9 10 36 0,0
25.06.2017 15:00:00 20,8 14,4 - - 26 14 46 25 SO 1013,0 10 42 0,0
25.06.2017 14:00:00 21,7 14,8 - - 26 14 - - SO 1013,2 10 30 0,0
25.06.2017 13:00:00 21,4 15,1 - - 22 12 - - OSO 1013,4 10 18 0,0
25.06.2017 12:00:00 18,3 14,2 - - 21 11 - - OSO 1013,8 10 0 0,0
25.06.2017 11:00:00 18,3 13,7 - - 22 12 - - OSO 1013,9 10 0 0,0
25.06.2017 10:00:00 17,7 13,3 19,9 16,7 22 12 - - O 1014,1 10 0 0,0
25.06.2017 09:00:00 17,6 12,6 - - 22 12 - - O 1014,0 10 24 0,0
25.06.2017 08:00:00 16,1 12,6 - - 21 11 - - O 1014,0 10 0 0,0
25.06.2017 07:00:00 15,3 12,2 - - 16 9 - - O 1014,0 10 0 0,0
25.06.2017 06:00:00 13,9 12,2 - - 11 6 - - O 1013,8 10 6 0,0
25.06.2017 05:00:00 13,8 12,2 - - 13 7 - - O 1013,6 16 0 0,0
25.06.2017 04:00:00 13,9 11,5 - - 13 7 - - O 1013,7 25 0 0,0
25.06.2017 03:00:00 15,2 12,0 - - 15 8 - - O 1013,9 30 0 0,0
25.06.2017 02:00:00 15,6 12,0 - - 15 8 - - O 1013,9 29 0 0,0
25.06.2017 01:00:00 16,0 12,6 - - 18 10 - - O 1014,0 30 - 0,0
25.06.2017 00:00:00 16,6 14,1 - - 11 6 - - ONO 1014,0 27 0 0,0
24.06.2017 23:00:00 16,6 14,8 - - 9 5 - - O 1013,9 10 0 0,0
24.06.2017 22:00:00 17,1 14,9 - - 9 5 - - OSO 1013,8 10 0 0,0
24.06.2017 21:00:00 17,4 14,9 - - 15 8 - - OSO 1013,4 10 0 0,0
24.06.2017 20:00:00 18,5 15,4 - - 16 9 - - OSO 1013,2 10 0 0,0
24.06.2017 19:00:00 18,7 15,6 - - 21 11 - - SO 1013,3 10 0 0,0
24.06.2017 18:00:00 18,5 15,8 - - 26 14 - - OSO 1013,6 10 0 0,0
24.06.2017 17:00:00 18,5 16,2 - - 24 13 - - SO 1014,1 10 0 0,0
24.06.2017 16:00:00 18,1 15,9 - - 24 13 - - SO 1014,5 10 0 0,0
24.06.2017 15:00:00 19,0 15,8 - - 24 13 - - SO 1014,7 10 0 0,0
24.06.2017 14:00:00 20,1 15,9 - - 24 13 - - OSO 1014,9 10 0 0,0
24.06.2017 13:00:00 19,7 15,7 - - 22 12 - - OSO 1015,2 10 0 0,0
24.06.2017 12:00:00 20,1 16,3 - - 22 12 - - OSO 1014,9 10 0 0,0
24.06.2017 11:00:00 19,3 16,5 - - 21 11 - - OSO 1015,1 10 0 0,0
24.06.2017 10:00:00 17,8 16,2 20,2 16,7 16 9 - - OSO 1015,3 10 0 0,2
24.06.2017 09:00:00 17,2 16,2 - - 18 10 - - O 1015,5 10 0 0,0
24.06.2017 08:00:00 16,7 15,7 - - 21 11 - - OSO 1015,6 10 0 0,0
24.06.2017 07:00:00 16,4 15,4 - - 18 10 - - OSO 1015,6 10 0 0,0
24.06.2017 06:00:00 15,9 15,3 - - 15 8 - - OSO 1015,6 10 0 0,2
24.06.2017 05:00:00 15,8 15,0 - - 22 12 - - OSO 1015,8 7 0 0,0
24.06.2017 04:00:00 16,1 14,4 - - 24 13 - - OSO 1016,1 7 0 0,0
24.06.2017 03:00:00 16,5 13,9 - - 24 13 - - OSO 1016,6 15 0 0,0
24.06.2017 02:00:00 16,5 13,5 - - 21 11 - - OSO 1016,9 15 0 0,0
24.06.2017 01:00:00 16,5 13,6 - - 18 10 - - O 1017,3 16 - 0,0
24.06.2017 00:00:00 16,5 13,6 - - 22 12 - - OSO 1017,3 10 0 0,0
23.06.2017 23:00:00 16,5 13,6 - - 21 11 - - OSO 1017,4 10 0 0,0
23.06.2017 22:00:00 16,9 13,8 - - 22 12 - - OSO 1017,6 10 0 0,0
23.06.2017 21:00:00 17,4 14,2 - - 28 15 - - OSO 1017,8 10 0 0,0
23.06.2017 20:00:00 17,8 14,4 - - 28 15 52 28 OSO 1017,7 10 0 0,0
23.06.2017 19:00:00 18,3 14,2 - - 31 17 - - OSO 1017,7 10 18 0,0
23.06.2017 18:00:00 19,9 14,3 - - 28 15 46 25 OSO 1017,9 10 0 0,0
23.06.2017 17:00:00 20,3 13,4 - - 29 16 46 25 O 1018,0 10 18 0,0
23.06.2017 16:00:00 20,3 12,3 - - 29 16 - - OSO 1017,7 10 6 0,0
23.06.2017 15:00:00 20,7 12,3 - - 28 15 - - OSO 1017,9 10 0 0,0
23.06.2017 14:00:00 20,4 12,9 - - 22 12 - - OSO 1018,1 10 6 0,0
23.06.2017 13:00:00 20,8 12,6 - - 24 13 - - OSO 1017,9 10 18 0,0
23.06.2017 12:00:00 19,5 11,9 - - 26 14 - - O 1018,2 10 6 0,0
23.06.2017 11:00:00 18,1 11,9 - - 22 12 - - O 1018,5 10 0 0,0
23.06.2017 10:00:00 17,4 11,7 20,7 16,7 24 13 - - O 1018,4 10 0 0,0
23.06.2017 09:00:00 16,6 11,1 - - 21 11 - - O 1018,1 10 0 0,0
23.06.2017 08:00:00 15,8 11,2 - - 18 10 - - O 1017,8 10 0 0,0
23.06.2017 07:00:00 14,8 11,3 - - 16 9 - - O 1017,4 10 60 0,0
23.06.2017 06:00:00 12,7 10,4 - - 5 3 - - SO 1017,2 16 0 0,0
23.06.2017 05:00:00 12,6 9,7 - - 15 8 - - O 1017,1 16 0 0,0
23.06.2017 04:00:00 12,7 9,8 - - 13 7 - - O 1017,0 18 0 0,0
23.06.2017 03:00:00 15,0 11,7 - - 15 8 - - O 1016,6 21 0 0,0
23.06.2017 02:00:00 15,0 12,1 - - 11 6 - - O 1016,8 21 0 0,0
23.06.2017 01:00:00 12,1 10,8 - - 9 5 - - O 1016,6 17 - 0,0
23.06.2017 00:00:00 13,0 10,7 - - 8 4 - - O 1016,6 17 0 0,0
22.06.2017 23:00:00 15,4 12,5 - - 11 6 - - NO 1016,3 10 0 0,0

tt = Temperatura
td = dewpoint
tt -20cm = Temperatura -20cm
tt -100cm = Temperatura -100cm
ff = velocità del vento
fx = gusts
dd = direzione del vento
ppp = reduced air pressure
vv = visibility
sd = ore di luce
rr = precipitazioni

Stazioni seguenti

WeatherPro
AMSI
MeteoEarth